Flag for U.S.A. Weather past 2 weeks in San Luis Obispo, California, U.S.A.

Now
65 °F

More clouds than sun.


Feels Like: 65 °F
Forecast: 62 / 74 °F
Wind: No wind

Location: San Luis Obispo County-Mc Chesney Field

Current Time: Sep 18, 2014 at 8:57:58 AM

Latest Report: Sep 18, 2014 at 7:56 AM


Visibility: 10 mi

Pressure: 29.88 "Hg

Humidity: 81%

Dew point: 59 °F

Location of San Luis ObispoLocation

Historic Weather in San Luis Obispo — Graph

°F

San Luis Obispo temperature yesterday

Maximum temperature yesterday: 82 °F (at 2:56 PM)
Minimum temperature yesterday: 54 °F (at 5:56 AM)
Average temperature yesterday: 66 °F

Past Weeks' High & Low Weather Summary

 TemperatureHumidityPressure
High87 °F (Sep 16, 12:56 PM)100% (Sep 10, 4:56 AM)29.98 "Hg (Sep 10, 4:56 AM)
Low49 °F (Sep 9, 4:56 AM)30% (Sep 16, 2:56 PM)29.73 "Hg (Sep 3, 4:56 PM)
Average64 °F77%29.85 "Hg
* Reported Sep 3 7:56 AM — Sep 18 7:56 AM, San Luis Obispo, Weather by CustomWeather, © 2014

Note: Actual official high and low records may vary slightly from our data, if they occured in-between our weather recording intervals... More about our weather records

Advertising

San Luis Obispo weather history for previous 24 hours

 ConditionsComfort  
Time TempWeatherWind HumidityBarometerVisibility
7:56 AM
Sep 18
65 °FMore clouds than sun.No wind81%29.88 "Hg10 mi
6:56 AM64 °FOvercast.No wind78%29.86 "Hg10 mi
5:56 AM64 °FOvercast.3 mph73%29.84 "Hg10 mi
4:56 AM63 °FOvercast.No wind75%29.83 "Hg10 mi
3:56 AM63 °FOvercast.3 mph75%29.84 "Hg10 mi
2:56 AM63 °FOvercast.No wind75%29.83 "Hg10 mi
1:56 AM61 °FOvercast.3 mph81%29.84 "Hg10 mi
12:56 AM61 °FClear.No wind81%29.84 "Hg10 mi
11:56 PM
Sep 17
61 °FClear.No wind81%29.85 "Hg10 mi
10:56 PM62 °FClear.No wind80%29.85 "Hg10 mi
9:56 PM63 °FClear.No wind81%29.85 "Hg10 mi
8:56 PM65 °FClear.6 mph78%29.83 "Hg10 mi
7:56 PM65 °FSunny.7 mph76%29.82 "Hg10 mi
6:56 PM68 °FSunny.13 mph65%29.81 "Hg10 mi
5:56 PM73 °FSunny.17 mph50%29.80 "Hg10 mi
4:56 PM72 °FSunny.15 mph57%29.79 "Hg10 mi
3:56 PM75 °FSunny.21 mph54%29.80 "Hg10 mi
2:56 PM82 °FSunny.12 mph33%29.80 "Hg10 mi
1:56 PM80 °FSunny.13 mph39%29.81 "Hg10 mi
12:56 PM80 °FSunny.12 mph36%29.82 "Hg10 mi
11:56 AM77 °FSunny.13 mph42%29.83 "Hg10 mi
10:56 AM73 °FSunny.9 mph57%29.83 "Hg10 mi
9:56 AM68 °FSunny.3 mph68%29.83 "Hg10 mi
8:56 AM60 °FFog.No wind93%29.82 "Hg3 mi
Weather by CustomWeather, © 2014

See weather overviewHow to use our weather pages